CW1490 Weather Reports


Display with metric or nautical units.
time (UTC)temp
F
wind
direction
speed
MPH
gust
MPH
rain 1hr
in
rain 24hr
in
rain mn
in
humidity
%
barometer
mb
20170425143644 50 56 2.0 4.0 0.03 0.09 0.09 90 1024.8
20170425142140 50 48 2.0 5.0 0.02 0.08 0.08 92 1024.6
20170425140634 49 50 2.0 6.0 0.02 0.07 0.07 91 1024.7
20170425135133 49 35 1.0 2.0 0.03 0.07 0.07 91 1024.9
20170425133633 49 44 0.0 2.0 0.02 0.06 0.06 90 1024.8
20170425132141 49 46 0.0 2.0 0.03 0.06 0.06 90 1024.7
20170425130621 49 46 2.0 4.0 0.03 0.05 0.05 91 1024.5
20170425125123 49 23 1.0 3.0 0.02 0.04 0.04 91 1024.7
20170425123613 49 33 1.0 2.0 0.02 0.04 0.04 91 1024.5
20170425122111 49 29 1.0 3.0 0.01 0.03 0.03 91 1024.4
20170425120617 48 37 0.0 2.0 0.01 0.02 0.02 91 1024.4
20170425115116 48 48 0.0 2.0 0.01 0.02 0.02 92 1024.1
20170425113601 47 16 1.0 3.0 0.01 0.02 0.02 92 1023.6
20170425112101 47 12 0.0 2.0 0.02 0.02 0.02 91 1023.5
20170425110603 47 12 0.0 1.0 0.01 0.01 0.01 91 1023.3
20170425105057 47 359 0.0 2.0 0.01 0.01 0.01 90 1023.0
20170425103559 47 359 1.0 2.0 0.01 0.01 0.01 89 1022.8
20170425102049 47 4 0.0 2.0 0.00 0.00 0.00 87 1022.7
20170425100544 48 21 1.0 3.0 0.00 0.00 0.00 86 1022.5
20170425095045 47 354 0.0 2.0 0.00 0.00 0.00 86 1022.5
20170425093546 47 10 1.0 3.0 0.00 0.00 0.00 86 1022.2
20170425092045 47 21 2.0 5.0 0.00 0.00 0.00 87 1022.2
20170425090546 47 36 2.0 4.0 0.00 0.00 0.00 88 1022.2
20170425085042 47 312 0.0 2.0 0.00 0.00 0.00 88 1022.1
20170425083540 47 192 0.0 2.0 0.00 0.00 0.00 87 1022.1
20170425082136 47 200 0.0 2.0 0.00 0.00 0.00 87 1021.9
20170425080544 47 200 0.0 3.0 0.00 0.00 0.00 86 1021.8
20170425075034 48 33 1.0 3.0 0.00 0.00 0.00 85 1021.5
20170425073537 47 8 3.0 6.0 0.00 0.00 0.00 87 1021.3
20170425072035 47 24 1.0 4.0 0.00 0.00 0.00 87 1021.5
20170425070533 45 294 0.0 0.0 0.00 0.00 0.00 90 1021.7
20170425065033 45 293 0.0 0.0 0.00 0.00 0.00 91 1021.7
20170425064135 45 293 0.0 0.0 0.00 0.00 0.00 90 1021.6
20170425062030 45 293 0.0 0.0 0.00 0.00 0.00 89 1021.7
20170425060529 45 293 0.0 0.0 0.00 0.00 0.00 90 1021.5
20170425055027 45 293 0.0 0.0 0.00 0.00 0.00 88 1021.5
20170425053600 45 293 0.0 0.0 0.00 0.00 0.00 88 1021.4
20170425052022 46 293 0.0 0.0 0.00 0.00 0.00 87 1021.5
20170425050522 46 293 0.0 0.0 0.00 0.00 0.00 86 1021.4
20170425045024 46 293 0.0 0.0 0.00 0.00 0.00 86 1021.4
20170425043518 47 293 0.0 0.0 0.00 0.00 0.00 85 1021.3
20170425040529 48 293 0.0 0.0 0.00 0.00 0.00 83 1021.1
20170425035015 49 337 0.0 2.0 0.00 0.00 0.00 81 1021.1
20170425033516 49 293 1.0 2.0 0.00 0.00 0.00 81 1021.0
20170425032009 50 293 1.0 3.0 0.00 0.00 0.00 79 1020.9
20170425030509 52 241 0.0 2.0 0.00 0.00 0.00 76 1020.7
20170425025008 51 345 0.0 3.0 0.00 0.00 0.00 79 1020.8
20170425023507 52 237 3.0 5.0 0.00 0.00 0.00 77 1020.7
20170425022017 53 258 3.0 4.0 0.00 0.00 0.00 76 1020.7
20170425020509 54 258 1.0 3.0 0.00 0.00 0.00 73 1020.7
20170425015019 54 258 1.0 4.0 0.00 0.00 0.00 72 1020.6
20170425013505 55 263 0.0 3.0 0.00 0.00 0.00 72 1020.6
20170425012008 56 263 1.0 3.0 0.00 0.00 0.00 68 1020.4
20170425010605 56 211 0.0 6.0 0.00 0.00 0.00 69 1020.0
20170425005008 58 346 1.0 3.0 0.00 0.00 0.00 59 1019.5
20170425003508 59 216 2.0 3.0 0.00 0.00 0.00 61 1019.2
20170425002014 60 216 2.0 3.0 0.00 0.00 0.00 61 1018.9
20170425000512 64 213 1.0 3.0 0.00 0.00 0.00 47 1018.8
20170424235002 66 239 2.0 4.0 0.00 0.00 0.00 42 1018.6
20170424233504 68 207 3.0 8.0 0.00 0.00 0.00 38 1018.3
20170424232021 68 235 1.0 4.0 0.00 0.00 0.00 45 1018.2
20170424230517 70 237 1.0 3.0 0.00 0.00 0.00 40 1018.0
20170424225009 72 224 2.0 5.0 0.00 0.00 0.00 31 1017.8
20170424223504 72 219 1.0 5.0 0.00 0.00 0.00 29 1017.9
20170424222002 72 225 2.0 5.0 0.00 0.00 0.00 32 1017.8
20170424220500 73 159 2.0 5.0 0.00 0.00 0.00 30 1017.9
20170424215017 73 207 3.0 9.0 0.00 0.00 0.00 37 1017.8
20170424213459 74 250 2.0 8.0 0.00 0.00 0.00 32 1017.8
20170424212017 74 166 0.0 7.0 0.00 0.00 0.00 29 1017.9
20170424210513 74 234 2.0 11.0 0.00 0.00 0.00 32 1017.8
20170424204956 74 226 3.0 6.0 0.00 0.00 0.00 32 1017.9
20170424203455 74 237 2.0 7.0 0.00 0.00 0.00 32 1018.0
20170424202028 74 215 5.0 8.0 0.00 0.00 0.00 33 1017.9
20170424200454 74 208 4.0 12.0 0.00 0.00 0.00 37 1017.9
20170424194955 74 193 3.0 10.0 0.00 0.00 0.00 30 1018.0
20170424193451 74 146 3.0 7.0 0.00 0.00 0.00 34 1018.1
20170424191950 73 193 6.0 12.0 0.00 0.00 0.00 32 1018.2
20170424190450 73 130 5.0 11.0 0.00 0.00 0.00 33 1018.5
20170424185147 74 107 3.0 7.0 0.00 0.00 0.00 31 1018.4
20170424183449 73 159 2.0 10.0 0.00 0.00 0.00 38 1018.6
20170424181948 72 338 3.0 8.0 0.00 0.00 0.00 32 1018.8
20170424180444 72 145 4.0 8.0 0.00 0.00 0.00 37 1019.0
20170424174944 71 120 1.0 5.0 0.00 0.00 0.00 33 1019.1
20170424173441 72 54 3.0 6.0 0.00 0.00 0.00 35 1019.3
20170424171938 70 54 2.0 4.0 0.00 0.00 0.00 35 1019.5
20170424170439 70 152 2.0 8.0 0.00 0.00 0.00 36 1019.6
20170424164943 69 229 2.0 8.0 0.00 0.00 0.00 44 1019.8
20170424163429 68 107 1.0 4.0 0.00 0.00 0.00 44 1020.0
20170424161931 66 241 2.0 4.0 0.00 0.00 0.00 46 1020.2
20170424160426 66 68 1.0 4.0 0.00 0.00 0.00 52 1020.6
20170424154923 64 210 1.0 4.0 0.00 0.00 0.00 51 1020.7
20170424153433 63 268 1.0 5.0 0.00 0.00 0.00 51 1020.8
20170424151923 62 35 0.0 3.0 0.00 0.00 0.00 51 1020.8
20170424150422 61 68 1.0 3.0 0.00 0.00 0.00 53 1021.2
20170424144914 59 60 1.0 3.0 0.00 0.00 0.00 55 1021.3